Temperature
23 24 25 25 25 24 21 19 19 19 18 18 17 17 19 20 19 18 18 17 16 16 15 14 13 13 12 12 11 11 10 10 10 9 9 9 9 8 8 8 8 7 7 7
22 24 24 24 25 24 24 23 21 19 19 18 19 20 19 19 18 18 17 17 16 15 15 14 13 12 12 11 11 11 10 10 10 9 9 9 8 8 8 8 8 8 8 8
20 21 23 23 24 24 24 23 21 20 19 18 18 18 19 18 18 18 17 17 16 15 14 13 13 12 12 11 11 10 10 10 9 9 9 8 8 8 8 8 8 8 8 8
19 20 22 21 23 24 23 22 21 19 18 18 19 19 19 19 18 18 17 17 16 15 14 13 13 12 11 11 11 10 10 9 9 9 8 8 8 8 8 8 8 8 8 8
18 20 21 22 24 23 21 20 20 19 18 19 18 17 17 18 18 18 17 16 16 15 14 13 12 12 11 11 10 10 10 9 9 8 8 8 8 8 8 8 8 8 8 8
19 20 20 21 23 24 20 20 21 20 19 20 18 15 16 19 18 17 17 16 15 14 14 13 12 11 11 10 10 10 9 9 9 8 8 8 8 8 8 8 8 8 8 8
19 19 20 22 24 24 21 20 21 22 22 21 19 18 20 19 18 18 17 16 15 15 14 13 12 11 11 10 10 9 9 9 9 8 8 8 8 8 8 8 8 8 8 8
18 19 20 22 24 22 21 23 23 23 22 22 22 21 20 19 18 18 17 16 15 15 14 13 12 11 10 10 10 9 9 9 9 8 8 7 7 8 8 8 8 8 8 7
18 19 22 25 25 26 25 24 23 23 23 22 21 21 20 19 19 18 17 16 15 14 13 13 12 11 10 10 9 9 9 9 9 8 8 8 7 8 8 8 8 8 8 7
20 20 22 25 26 26 25 25 24 24 23 22 22 21 20 19 19 18 17 16 15 14 13 13 12 11 10 10 9 9 9 9 8 8 8 8 8 8 8 8 8 8 8 7
19 20 23 25 26 26 25 25 24 24 23 23 22 21 20 20 19 18 17 16 15 14 13 12 12 11 10 10 9 9 9 9 8 8 8 8 8 8 8 8 8 8 8 7
19 22 20 24 26 25 25 25 24 24 23 23 22 22 21 20 19 18 17 16 15 14 13 12 12 11 10 10 9 9 9 8 8 8 8 8 8 9 9 9 8 8 8 8
24 25 25 25 25 25 25 25 25 24 23 23 22 22 21 20 19 18 17 16 15 14 13 13 12 11 10 10 9 9 9 8 8 8 8 8 8 8 8 9 9 8 8 8
25 25 25 25 25 25 25 25 24 24 23 23 22 21 21 20 19 18 17 16 15 14 13 13 12 11 11 10 9 9 9 8 8 8 8 8 8 8 8 8 8 8 8 8
24 24 24 24 24 24 24 24 24 23 23 22 22 21 20 20 19 18 17 16 15 15 14 13 12 12 11 10 10 9 9 8 8 8 8 8 8 8 8 8 8 8 8 8
21 22 21 21 21 21 22 22 22 22 22 22 21 21 20 19 18 17 17 16 15 15 14 13 12 12 11 10 10 9 9 9 8 8 8 8 8 8 9 8 8 8 8 8
17 17 17 17 18 18 19 19 20 20 21 21 21 20 20 19 18 17 16 16 16 15 14 13 13 12 11 10 10 10 9 9 9 8 8 8 8 8 8 8 8 8 8 8
15 15 15 15 16 16 17 18 18 19 19 20 20 20 19 18 18 17 17 16 15 15 14 13 13 12 11 11 10 9 9 9 8 8 8 8 8 8 8 8 8 8 8 8
15 15 15 15 15 15 16 16 17 17 18 18 18 18 18 18 18 17 17 16 15 15 14 13 12 12 11 11 10 9 9 9 8 8 8 8 8 8 9 9 8 8 8 8
14 14 14 14 15 15 15 15 16 16 16 16 16 17 17 17 17 17 16 16 16 15 14 13 12 12 11 10 10 9 9 8 8 8 8 8 8 8 9 9 9 8 8 8
13 13 13 13 13 14 14 14 14 14 15 15 15 15 15 16 16 16 16 15 15 14 13 13 12 11 11 10 9 9 8 8 8 8 8 8 8 8 9 9 9 9 8 8
12 12 12 12 12 13 13 13 13 13 13 13 13 14 14 14 14 15 15 15 15 14 13 12 11 11 10 10 9 9 8 8 8 8 8 8 8 8 8 9 9 9 9 9
11 12 12 12 12 12 12 12 12 12 12 12 12 12 13 13 13 13 14 14 14 13 12 12 11 10 10 10 9 8 7 7 8 8 8 8 8 8 8 8 9 9 9 9
11 11 11 11 11 11 12 11 11 11 11 11 11 12 12 12 12 13 13 13 13 12 12 11 10 10 9 9 8 7 7 7 7 7 7 7 8 8 8 8 9 9 9 9
10 11 11 11 11 11 11 11 11 11 11 11 11 11 11 11 11 12 12 12 12 11 10 10 9 9 8 8 7 7 7 7 7 7 7 7 7 8 8 8 9 9 9 9
10 10 10 10 11 11 10 10 10 10 10 10 10 10 10 10 10 11 11 11 10 10 9 9 8 8 8 7 7 6 6 6 6 6 7 7 7 7 8 8 8 9 9 9
10 10 10 10 10 10 10 10 10 10 10 9 9 9 9 9 9 9 10 10 10 9 8 8 7 7 7 6 6 6 6 6 6 6 6 6 6 7 7 8 8 8 9 9
Wind_Speed
4 6 5 4 4 7 7 9 8 9 10 11 11 11 11 9 9 7 7 6 5 4 4 5 6 6 6 6 6 5 5 6 7 8 8 7 8 8 8 8 9 9 9 9
6 8 9 7 3 5 6 6 7 9 6 8 8 7 7 8 8 7 6 5 4 4 4 5 6 6 5 6 6 5 6 7 7 7 7 7 8 8 8 9 9 9 9 9
4 8 7 5 3 4 5 5 9 8 8 7 6 8 8 8 8 7 6 6 5 5 5 6 6 5 5 5 5 5 6 7 7 7 7 8 9 9 9 9 9 9 9 10
1 6 3 9 5 6 7 4 7 9 8 9 9 7 7 9 9 8 8 6 5 5 5 5 4 4 4 4 5 6 7 7 7 7 8 9 9 9 10 9 9 10 10 11
3 2 6 8 4 5 7 3 5 10 9 8 7 4 2 7 8 9 8 7 6 5 4 4 5 5 4 5 5 6 7 7 7 7 9 9 10 11 10 9 10 10 10 10
4 4 6 8 5 6 9 1 5 9 10 9 9 2 5 8 8 9 7 5 5 4 3 3 5 4 3 5 6 7 7 8 7 8 9 10 11 11 10 9 10 10 10 10
5 6 7 8 5 5 3 8 9 10 10 10 9 8 7 8 9 8 7 6 5 3 2 4 5 3 4 6 7 8 7 7 8 8 9 10 9 9 10 10 10 9 10 9
4 3 7 8 4 6 10 7 9 10 11 10 10 9 9 10 10 9 7 6 5 3 4 5 4 3 5 7 7 7 7 7 8 9 9 10 9 10 10 9 9 9 8 8
7 8 9 8 10 10 9 9 10 11 11 12 11 10 10 10 10 9 8 6 4 4 4 5 5 4 6 7 6 6 6 8 9 10 9 9 9 10 10 8 7 7 7 7
4 9 9 10 8 7 10 11 12 12 12 12 11 11 11 10 9 8 6 6 4 4 4 5 6 5 6 6 5 5 7 8 8 9 10 9 8 8 8 8 8 7 7 7
6 9 7 7 8 9 9 10 10 10 12 14 13 11 11 10 10 9 7 5 5 5 5 7 6 6 6 5 4 5 7 8 8 8 9 9 9 8 9 9 9 8 7 7
8 10 7 8 9 8 9 10 12 12 11 11 12 13 12 11 10 9 8 6 5 5 6 6 6 6 5 5 4 5 7 7 7 8 8 8 9 11 13 12 14 14 13 10
10 10 9 8 7 7 8 10 11 13 14 12 11 12 12 9 9 9 8 7 7 7 6 6 5 6 6 5 4 5 7 8 7 7 8 9 8 9 11 12 12 11 12 12
8 5 3 4 5 6 6 8 8 10 11 13 12 10 10 9 8 9 9 8 7 6 6 5 5 6 6 5 5 6 7 8 8 7 8 9 9 9 8 8 8 7 8 10
6 2 2 2 4 5 3 1 2 5 8 10 10 11 12 11 10 10 9 8 6 6 6 5 6 7 5 4 5 7 7 6 7 7 8 8 8 8 8 8 7 7 6 6
7 10 11 12 11 10 9 7 4 4 7 10 11 11 12 12 10 9 8 8 7 6 7 7 7 5 4 4 5 5 6 10 10 7 8 8 8 8 7 7 7 6 6 6
18 16 14 15 14 14 13 12 9 7 3 6 11 11 10 10 9 8 8 9 9 8 8 7 6 5 4 4 4 4 5 8 11 9 7 8 8 8 7 7 6 6 6 6
14 13 13 13 13 14 16 17 16 15 9 4 3 7 10 11 11 11 10 9 8 7 7 7 6 5 4 4 3 4 5 6 6 7 7 7 8 8 7 6 6 7 6 6
15 15 15 15 14 13 13 14 15 14 12 7 1 4 8 10 11 11 9 9 9 8 7 8 9 6 4 4 3 4 5 6 6 6 6 9 9 7 7 6 6 6 6 5
14 14 15 15 14 14 13 13 13 13 12 10 6 5 6 9 10 10 10 10 9 7 8 9 7 5 4 3 3 4 5 5 5 6 6 6 7 8 7 6 6 6 5 5
13 13 14 14 13 13 12 12 12 12 12 10 9 10 10 11 10 9 8 9 8 7 8 9 6 5 3 2 3 3 4 4 4 5 6 6 7 8 7 7 6 5 5 5
10 10 11 12 12 12 12 11 11 12 12 12 12 11 10 10 11 10 9 9 7 10 8 6 5 6 4 2 1 2 3 3 4 5 5 6 7 7 8 8 6 5 6 5
9 9 11 11 12 12 12 11 12 11 11 11 11 10 10 10 8 8 10 7 6 11 8 6 8 9 5 2 1 0 2 3 4 5 5 6 6 7 7 8 6 6 6 6
10 11 11 12 11 10 11 11 10 8 8 9 8 9 8 8 8 7 6 6 11 11 7 9 12 9 5 2 1 1 2 3 4 5 5 6 6 7 7 7 7 6 6 6
12 12 12 11 10 8 8 8 8 8 8 7 8 9 8 7 7 7 2 4 10 10 6 8 10 8 4 3 3 2 2 3 4 5 5 6 7 7 7 7 7 6 7 6
11 10 9 9 7 6 6 5 5 6 6 6 7 8 8 7 7 4 1 5 9 9 6 5 5 5 4 5 4 3 3 4 5 5 6 6 7 7 7 8 9 7 7 7
9 8 6 7 7 6 5 5 5 6 6 6 7 7 8 7 6 4 1 4 6 6 6 5 5 6 6 6 5 5 4 5 5 6 6 6 6 7 8 8 7 7 7 8
Wind_Direction
271 298 331 302 212 170 154 168 164 185 177 199 195 190 194 194 187 173 178 186 194 212 237 255 264 267 263 261 265 265 269 273 272 275 278 279 280 280 279 274 276 267 265 261
333 323 329 317 278 173 158 152 140 138 181 209 198 188 189 181 163 161 176 184 187 206 239 262 269 270 266 267 271 271 274 277 280 285 288 286 285 284 284 280 277 274 268 264
299 316 352 318 255 153 142 153 151 168 190 180 174 183 179 167 161 172 185 191 207 233 248 260 263 257 259 264 274 284 285 286 288 290 292 290 294 296 288 285 280 278 272 267
231 8 316 261 260 135 118 100 133 137 156 169 173 173 177 176 173 185 192 203 228 242 253 259 256 257 260 274 290 294 293 292 293 296 295 294 293 291 288 283 280 278 277 272
144 219 274 291 281 150 123 69 145 141 157 163 149 114 249 211 189 191 198 204 217 227 231 249 264 258 274 295 299 299 295 292 293 296 298 299 297 295 291 288 285 281 277 275
164 193 242 254 256 128 99 122 209 161 163 162 143 135 256 225 196 193 197 201 209 221 234 270 271 264 283 294 298 293 288 288 292 296 297 298 295 293 291 287 284 285 283 279
202 222 253 242 213 112 129 230 206 179 174 169 176 200 211 191 189 192 192 194 188 197 245 265 269 264 282 290 286 280 284 293 298 298 297 294 291 291 292 292 291 287 285 285
185 207 258 240 192 178 213 202 185 183 182 181 193 198 184 178 184 185 185 189 186 204 255 270 269 258 277 282 276 284 293 301 301 299 301 308 300 299 295 292 291 290 288 292
188 215 235 222 210 212 179 179 191 189 189 177 177 183 181 182 183 186 187 196 202 211 255 277 271 250 266 270 278 293 303 304 302 302 300 297 296 298 300 295 289 289 287 287
260 265 254 244 239 220 191 192 194 188 182 175 177 181 179 178 183 188 193 199 203 213 255 274 270 260 253 265 277 293 301 301 301 303 305 305 300 294 293 292 290 288 285 283
290 287 303 287 243 225 214 202 194 189 184 182 175 177 177 181 186 190 194 200 197 210 239 257 263 267 265 264 271 292 297 297 299 299 300 305 302 295 290 280 271 270 272 267
247 250 227 246 248 229 208 206 198 189 190 187 178 177 176 181 184 184 189 190 197 216 235 252 261 267 264 254 258 286 298 301 300 303 304 303 305 309 299 287 286 275 257 251
240 243 222 239 250 231 214 214 203 191 188 188 186 177 172 177 181 179 182 186 199 215 228 243 255 258 258 251 260 278 286 292 297 299 302 304 303 303 308 311 305 291 276 267
262 246 258 281 274 259 233 217 200 195 194 186 179 174 171 168 170 176 184 195 198 204 220 232 241 255 254 250 270 284 287 294 298 294 298 300 299 297 294 295 304 306 293 278
285 253 235 311 347 336 315 290 173 203 198 189 180 174 172 171 175 183 187 187 185 198 220 232 248 259 250 255 278 287 291 293 295 296 297 297 297 297 296 293 292 296 301 301
21 29 30 31 25 16 13 6 349 266 215 199 191 186 181 175 173 175 179 177 178 208 229 238 245 241 238 262 282 287 290 303 311 302 302 303 303 303 301 297 296 299 300 294
47 35 27 26 22 19 17 10 358 336 280 216 204 187 167 159 163 177 189 194 195 206 218 223 222 219 243 261 268 277 290 304 313 309 300 301 303 302 299 297 296 297 295 287
53 48 42 34 26 21 15 12 8 1 347 306 187 162 164 170 183 194 199 199 203 215 223 206 193 209 246 254 252 273 287 292 298 301 304 307 308 305 303 303 304 301 298 299
38 35 30 25 19 16 10 5 1 359 356 358 3 195 197 197 199 201 197 196 206 221 222 195 193 206 230 232 253 280 288 295 300 303 307 313 317 316 316 312 309 308 307 306
27 22 18 11 6 4 359 354 351 350 348 342 322 278 245 232 220 210 201 210 216 212 192 180 184 196 206 231 288 287 290 294 303 310 315 318 318 318 320 319 314 316 317 309
12 6 0 353 347 345 342 338 335 329 325 318 300 279 263 252 237 218 209 228 235 200 175 172 170 175 188 242 299 289 293 305 317 317 318 320 320 321 323 323 322 320 319 313
351 343 335 330 326 323 320 318 315 312 311 308 301 295 290 278 261 243 230 228 215 177 166 159 160 176 185 221 271 290 308 329 330 323 321 323 324 323 323 323 321 321 319 314
324 316 312 308 305 303 305 308 308 309 308 308 310 308 301 291 275 253 253 239 188 171 162 160 170 176 175 167 202 317 347 349 339 330 326 324 323 323 322 323 321 319 321 326
314 309 304 300 302 307 308 307 311 314 315 314 317 320 321 318 315 291 266 204 168 161 160 167 171 174 161 135 117 79 18 356 344 334 330 328 330 332 329 329 330 333 338 341
306 304 302 304 308 304 299 307 319 325 330 328 326 329 331 325 315 310 281 166 160 151 152 172 174 164 140 114 101 79 43 13 358 347 344 343 340 339 339 343 346 348 354 354
299 301 300 298 296 295 301 312 319 318 321 325 325 323 327 328 326 324 209 161 156 153 153 156 154 137 114 107 97 79 53 24 7 358 353 350 345 345 345 350 357 5 4 4
298 304 308 314 313 315 318 318 317 315 315 316 314 314 317 320 322 314 213 159 152 146 137 128 120 111 103 97 86 68 49 30 15 2 357 356 354 351 350 352 3 8 9 9
Height
1503 1496 1493 1492 1491 1493 1500 1507 1516 1514 1515 1512 1508 1507 1507 1507 1507 1507 1508 1507 1506 1504 1502 1500 1498 1495 1492 1489 1487 1484 1480 1477 1474 1470 1467 1463 1460 1456 1453 1450 1447 1444 1442 1439
1505 1495 1493 1492 1487 1488 1491 1494 1501 1507 1510 1503 1503 1504 1504 1504 1504 1505 1505 1504 1503 1501 1499 1496 1493 1491 1488 1485 1482 1479 1476 1472 1469 1465 1461 1458 1454 1450 1446 1443 1440 1438 1435 1432
1515 1503 1499 1503 1489 1487 1489 1488 1494 1504 1503 1500 1503 1502 1501 1501 1502 1502 1501 1500 1499 1497 1494 1492 1489 1486 1483 1481 1478 1475 1471 1467 1464 1460 1456 1452 1448 1444 1440 1437 1434 1431 1428 1425
1516 1514 1517 1503 1481 1480 1487 1489 1488 1492 1495 1496 1498 1498 1498 1498 1498 1498 1497 1496 1494 1492 1490 1488 1485 1482 1480 1477 1474 1470 1466 1462 1459 1455 1450 1446 1442 1438 1435 1431 1428 1425 1422 1418
1519 1519 1512 1494 1482 1481 1489 1495 1490 1491 1494 1495 1495 1497 1497 1496 1495 1494 1493 1492 1491 1489 1486 1484 1481 1478 1475 1472 1469 1465 1461 1458 1454 1449 1445 1440 1436 1433 1429 1426 1422 1419 1416 1412
1513 1516 1518 1498 1480 1478 1485 1498 1489 1488 1489 1491 1493 1498 1495 1491 1491 1490 1489 1488 1487 1485 1482 1480 1477 1474 1471 1468 1464 1460 1457 1453 1449 1444 1440 1435 1431 1427 1424 1421 1417 1414 1410 1406
1510 1513 1502 1483 1476 1478 1496 1494 1483 1483 1483 1485 1486 1488 1486 1486 1487 1486 1486 1485 1483 1481 1479 1476 1473 1470 1467 1463 1460 1456 1452 1448 1444 1440 1435 1431 1427 1423 1420 1416 1412 1408 1405 1401
1507 1510 1502 1475 1475 1480 1480 1473 1475 1477 1478 1479 1480 1481 1481 1482 1482 1482 1482 1481 1479 1477 1475 1472 1469 1466 1463 1459 1456 1452 1448 1444 1439 1435 1431 1426 1422 1418 1415 1412 1407 1403 1399 1395
1493 1492 1474 1469 1469 1468 1468 1469 1470 1471 1472 1473 1475 1476 1477 1477 1478 1478 1478 1477 1475 1473 1471 1468 1465 1462 1459 1455 1451 1447 1443 1439 1435 1430 1426 1422 1418 1414 1411 1407 1403 1399 1395 1390
1480 1474 1467 1465 1464 1464 1463 1463 1464 1465 1467 1468 1469 1470 1471 1472 1473 1473 1473 1472 1471 1469 1467 1464 1461 1458 1455 1451 1447 1443 1439 1435 1430 1426 1422 1418 1414 1411 1407 1403 1399 1395 1390 1386
1477 1469 1464 1462 1461 1460 1460 1460 1460 1461 1462 1462 1463 1464 1465 1466 1467 1468 1468 1468 1467 1465 1463 1460 1457 1454 1450 1447 1443 1439 1435 1430 1426 1422 1418 1414 1410 1407 1403 1400 1396 1391 1387 1383
1475 1465 1463 1459 1457 1457 1456 1455 1455 1455 1456 1457 1458 1458 1460 1461 1462 1462 1463 1463 1462 1460 1458 1456 1453 1450 1447 1443 1439 1435 1430 1426 1422 1418 1414 1410 1406 1402 1399 1396 1392 1387 1383 1379
1461 1459 1457 1455 1453 1452 1451 1450 1450 1450 1450 1451 1452 1453 1454 1455 1456 1457 1458 1457 1457 1456 1454 1451 1449 1446 1443 1439 1435 1431 1427 1422 1418 1415 1411 1407 1403 1399 1395 1391 1388 1384 1380 1376
1456 1454 1452 1450 1449 1448 1447 1446 1446 1446 1446 1446 1446 1447 1449 1450 1451 1452 1453 1453 1452 1451 1449 1447 1444 1441 1438 1435 1431 1427 1423 1419 1415 1411 1407 1403 1400 1396 1392 1388 1384 1380 1376 1372
1451 1450 1449 1447 1445 1445 1444 1443 1442 1442 1442 1441 1442 1443 1443 1444 1445 1447 1448 1448 1448 1446 1445 1442 1439 1437 1434 1431 1427 1423 1419 1415 1411 1408 1404 1400 1397 1393 1389 1386 1382 1377 1373 1370
1448 1447 1446 1445 1444 1443 1442 1441 1440 1439 1438 1437 1437 1437 1438 1439 1440 1442 1442 1442 1442 1441 1440 1437 1435 1433 1430 1426 1423 1419 1416 1412 1408 1404 1401 1397 1394 1390 1386 1383 1379 1375 1371 1368
1448 1449 1449 1448 1447 1445 1444 1442 1440 1437 1435 1433 1432 1433 1434 1435 1436 1437 1437 1438 1436 1435 1434 1432 1430 1428 1425 1422 1419 1415 1412 1408 1405 1401 1398 1394 1391 1387 1384 1380 1376 1373 1369 1366
1456 1456 1454 1453 1450 1448 1445 1442 1440 1438 1436 1433 1432 1432 1431 1431 1432 1432 1432 1431 1430 1428 1427 1426 1425 1424 1421 1418 1415 1412 1408 1405 1401 1398 1395 1391 1388 1385 1381 1378 1374 1371 1367 1364
1458 1457 1456 1454 1453 1451 1448 1446 1443 1440 1438 1437 1435 1433 1431 1430 1428 1427 1426 1425 1424 1423 1422 1421 1420 1419 1417 1414 1411 1408 1405 1401 1398 1395 1392 1389 1386 1383 1379 1376 1373 1369 1366 1362
1460 1459 1457 1455 1454 1451 1448 1446 1444 1441 1440 1439 1437 1434 1431 1428 1426 1423 1421 1419 1418 1417 1416 1416 1415 1414 1412 1410 1407 1404 1401 1398 1395 1392 1389 1386 1384 1381 1378 1375 1372 1368 1365 1361
1462 1460 1458 1456 1453 1451 1448 1446 1443 1440 1437 1436 1434 1430 1426 1423 1420 1417 1415 1413 1413 1412 1411 1411 1410 1410 1408 1405 1403 1400 1398 1395 1392 1389 1387 1384 1382 1379 1376 1374 1371 1368 1364 1361
1464 1461 1459 1456 1452 1449 1446 1443 1440 1436 1433 1430 1427 1423 1420 1416 1413 1411 1409 1407 1407 1406 1405 1405 1405 1405 1403 1401 1399 1397 1394 1392 1389 1387 1384 1382 1380 1378 1375 1373 1370 1367 1364 1361
1463 1460 1457 1453 1450 1446 1443 1440 1436 1432 1429 1425 1421 1418 1413 1410 1407 1404 1401 1401 1400 1399 1399 1399 1400 1400 1399 1397 1395 1393 1391 1389 1386 1384 1382 1380 1378 1376 1374 1372 1370 1367 1364 1361
1459 1455 1452 1448 1445 1441 1438 1434 1431 1428 1425 1421 1417 1413 1408 1404 1400 1398 1395 1393 1393 1393 1394 1394 1395 1395 1395 1394 1392 1390 1388 1386 1384 1382 1380 1378 1377 1375 1374 1372 1369 1367 1364 1361
1454 1450 1447 1443 1440 1437 1433 1430 1427 1424 1420 1416 1412 1409 1404 1400 1397 1393 1390 1388 1387 1388 1389 1390 1391 1391 1391 1390 1389 1387 1385 1383 1381 1379 1378 1376 1375 1374 1373 1371 1369 1367 1365 1362
1449 1446 1443 1440 1437 1434 1430 1427 1424 1420 1416 1412 1408 1404 1400 1396 1392 1388 1385 1384 1383 1383 1385 1386 1387 1387 1387 1386 1385 1384 1382 1380 1379 1377 1376 1375 1374 1373 1371 1370 1369 1368 1366 1363
1445 1442 1439 1436 1433 1430 1427 1424 1421 1417 1413 1409 1405 1401 1396 1392 1388 1384 1381 1379 1379 1379 1381 1382 1384 1384 1384 1384 1383 1381 1379 1378 1376 1375 1374 1373 1372 1371 1371 1370 1369 1368 1366 1365